顯示廣告
隱藏 ✕
※ 本文轉寄自 ptt.cc 更新時間: 2021-02-17 05:27:12
看板 Boy-Girl
作者 td123 (內行人)
標題
 Re: [求助] 女友最近的行為讓我很困擾

時間 Tue Feb 16 12:24:20 2021


先說結論吧 你若是沒打算同伴侶一同修真 就早早散了吧




數十年前在道場練氣 結交了一對夫妻一同修真

就和他們閒聊 得知他們的境界也差不多就在練氣階段 卡在築基上不去

剛好我手中有些多餘的基礎藥石 想助兩位突破 就贈與這對夫妻 想交個朋友

隨後言談甚歡 夫妻甚至邀請我至其府上一同論道

我本就想結交道友 便敲定了時間


過了幾天拜訪 閒聊之際 二位才娓娓道出其中的原委

原來兩位夫妻 先是妻子接觸修真 丈夫對此一竅不通


但修真難如登天 僅憑一人之力 除非天資過人 多半還是得交流論道才有利突破


但丈夫性妒 妻子也不便與生人結識

兩相矛盾之下 夫妻間做出的辦法就是 妻子拉了丈夫一同修練

妻子目的是為了往後雙修提升境界 以利突破階段

丈夫目的是為了避免妻子與異性不必要的接觸


得知此事的我也不該做何表示

便茫然問到:那二位邀請不才的理由為何?

夫妻這才說明 原來當天在道場修練時 便見我仙姿超凡

雖目前功底尚淺 想必日後必有所突破

夫妻二人已雙修一段時間 久無突破 遇上瓶頸 再下去也不是辦法

左右思量之下 丈夫勉為其難地拜託我與其妻結交道侶

一是見我天人之姿 戴了綠帽也是值得說嘴的綠帽

二是知我親屬關係 上有提攜 左右逢源 日後必有突破

三是收我贈禮 言談甚歡 好感度頗高

四是望我日後登天 帶我日後境界提高 拉上夫妻一把



說結論吧 考慮了很多 但我拒絕了 主要還是不介入婚姻

天知道這兩人是否與人結仇 而後耽誤了我修真的大道



總之遇此事件後 過了數年 期間我交了數位道侶

透過雙修漲了許多修為 早已突破築基期 到了結晶期 最近也在準備進入金丹了



而後也輾轉得知那兩位夫妻再沒有與人交流

夫妻仍苦於初期階段 僅僅只突破練氣到了築基

兩人閉門造車 終究還是沒有前景


想起我們初遇當時 站在同樣的起點 如今已大大的不同 便不免覺得感慨





--
--
※ 發信站: 批踢踢實業坊(ptt.cc), 來自: 1.34.5.148 (臺灣)
※ 文章代碼(AID): #1WAqZsMm (Boy-Girl)
※ 文章網址: https://www.ptt.cc/bbs/Boy-Girl/M.1613449462.A.5B0.html
wingthink: 哪一部?1F 02/16 12:25
rogergon: 在哪裡渡的劫?最近沒打雷啊?2F 02/16 12:29
mftd: 哪部?3F 02/16 12:32
沒有哪部 僅僅是修真界的日常
※ 編輯: td123 (1.34.5.148 臺灣), 02/16/2021 12:41:38
pyramidinc: 渡劫 笑死4F 02/16 12:45
pyramidinc: 乾脆直接轉生
encoreb00124: 看到我在哪?6F 02/16 12:48
eros61204: 娘子快出來跟牛魔王看上帝7F 02/16 12:49
chigo520: 所以練上去有什麼不一樣?8F 02/16 12:49
jack778: 我看渡劫可能會殞落9F 02/16 12:50
kaki1231: 我懷疑你在嚴肅的話唬爛 但我沒有證據10F 02/16 12:54
unicum6: 好奇幾靈根XD11F 02/16 12:56
Defence24: 反正我信了12F 02/16 13:01
v2ssili: 先恭賀道友金丹有成啦!!13F 02/16 13:06
PECVD: 為什麼我的門派都沒雙修!?14F 02/16 13:11
RaiGend0519: 到金丹期應該可以飛上天了吧?15F 02/16 13:15
m4365: 課金,一次可以直接一轉,能再選一次真言修煉16F 02/16 13:21
ironfisted: 只要跟七七四十九人雙修 就可得道升天17F 02/16 13:22
yoche2000: 我是誰 我在哪裡18F 02/16 13:30
j23932: 你認不認識宋書航?19F 02/16 13:31
AirOctopus: 請問去哪找想雙修的道友,我也想提升(認真)20F 02/16 13:32
m4365: 找七十九歲的神尼雙修一次即可!21F 02/16 13:33
namis77: 這一串釣到奇人22F 02/16 13:33
kiki41052: 原來是已辟穀的前輩 失敬失敬23F 02/16 13:38
osmanthusjo: 哪部?24F 02/16 13:38
madless: 直接報等級比較快~我剛創角1等,你勒?25F 02/16 13:41
BLUEPAPER: 我還以為我在CFantasy XD26F 02/16 13:41
narratager: 你這樣要多久才可以到分神期?不再多找幾個?27F 02/16 13:43
beca800203: 可以 我給過28F 02/16 13:45
prodigious: 修真一途 講求的是道心29F 02/16 13:45
hoymalvida:30F 02/16 13:49
ppccfvy: 渡劫失敗可以兵解修成散仙啊31F 02/16 13:50
stocktonty: 我還以為我在靈學版32F 02/16 13:53
ProfessUX: 等等 你是小龍女嗎33F 02/16 13:53
YAUN: 幹 沒大羅境界就四處修干根本淫邪魔修34F 02/16 13:57
chudly: 敢問大能道號是?35F 02/16 13:57
Endranoe: 此子book留36F 02/16 14:01
MartyFriedma: 數位道侶 是類似AI老婆嗎37F 02/16 14:02
plutox: 那你的天屁眼開啟的順利嗎38F 02/16 14:03
johnsnow: 與其看這些幹話,我還比較相信肝膽排石法39F 02/16 14:09
parappa: 3P40F 02/16 14:09
johnsnow: 你的道號是不是叫「乂戾裟裟」41F 02/16 14:11
simga: 閣下哪個門派的?靈劍派嗎?XDD42F 02/16 14:14
rogergon: 他這個道途明顯是鬼谷八荒一脈,其餘沒聽過啥結晶期。43F 02/16 14:18
possible322: 你是仙界派來的嗎?44F 02/16 14:25
pog83: 幾霸婚45F 02/16 14:26
[圖]
dglin: 笑死 U文推47F 02/16 14:37
Matix1211: 原來哥境界這麼高,可否助我渡天劫?48F 02/16 14:42
timyeh1997: 這裡是西斯版嗎49F 02/16 14:42
xheath: 修真要跟別人打砲喔?50F 02/16 14:45
sheep0121: 飛升是元嬰之後再上一個境界啦,不過大部份小說境界設51F 02/16 14:46
sheep0121: 定都不太一樣,這部我也看不出來
odsL1573: 有修真聊天群能++嗎?53F 02/16 14:47
jaids: 笑了54F 02/16 14:49
pp096127: 不要再刷逆天改命了55F 02/16 14:51
deweyj: 比較常見的是練氣 築基 結丹 元嬰 過元嬰之後好像就看設定56F 02/16 14:51
deweyj:  有的直接  化神 飛升 有但還繼續往上修
laDsaikyo: 等等,金丹等級御劍飛行應該基本吧?58F 02/16 14:53
a0988864: 我已經二轉火術士了,請問怎麼更上層樓59F 02/16 14:58
justlink: 有笑有推60F 02/16 15:00
saito2190: 我怎麼看不懂61F 02/16 15:03
sweetsmoke: 哪部啊?????62F 02/16 15:03
mepass: 最近要渡劫 丹藥有點不夠 求支援63F 02/16 15:04
ironfisted: 跪求修真群++64F 02/16 15:04
bbcumback2me: 白話文是說你打砲打了一堆嗎65F 02/16 15:08
brian3639: 有笑有推66F 02/16 15:09
dor7is: 我看了什麼67F 02/16 15:10
lecognac: 可悲的一群人68F 02/16 15:11
tjtsyhssy: 我懷疑你在發廢文但是我沒證據69F 02/16 15:13
mark1357945: 鬼谷八荒吧 哈哈70F 02/16 15:18
gagonman: 到底是休真還是休桿?71F 02/16 15:19
ConflictRB: 敢問前輩 師承何處?72F 02/16 15:20
spadej69171: 害我還左轉出去 以為來到小說版73F 02/16 15:21
nasuchan: 突然覺得肝膽排石法好真啊!74F 02/16 15:21
moon1111: 柳生劍影喔75F 02/16 15:23
a819200: 哪時候突破到元嬰76F 02/16 15:25
Hertz52: steam好像有這款遊戲77F 02/16 15:25
xkiller1900 
xkiller1900: 笑死,這是CF板逆XDDDD78F 02/16 15:27
up2u0708: 想不到今天上ptt看的第二篇文就用太多了79F 02/16 15:31
r155053: 三小80F 02/16 15:31
snoopy63: 我以為誤跑到小說版...81F 02/16 15:34
fjucharlie: 靠北 好久沒看到優質文了82F 02/16 15:34
e2225314: 閣下的文筆,讓我一度在看小說的錯覺83F 02/16 15:34
q200314: 最近剛玩雲端修仙日誌求+84F 02/16 15:35
rutp6j35566: 哪部 保留元陽不是比較好修煉?85F 02/16 15:35
ilanalan: 簡單來說要背娃娃修煉打怪就是了哈86F 02/16 15:36
oldxgoat: 敢問閣下在哪渡劫87F 02/16 15:38
lolicat: 哪部?這劇本看起來就很難看88F 02/16 15:44
z810638: 分明不是你的菜..講那麼多,不然菩提棍攪一下也算功德一件89F 02/16 15:46
holydc: 你嗑了什麼也給我來一點90F 02/16 15:46
madira: 創意推91F 02/16 15:46
LemonUrsus: 想必是道心不堅www92F 02/16 15:49
lebo469: 有笑有推93F 02/16 15:51
zzzttt22: 恭喜煉丹有成!94F 02/16 15:52
more520: 這在寫小說嗎95F 02/16 15:56
jackysupper: 轉生魔地藏嗎96F 02/16 15:56
BLUEPAPER: 這位金丹期的道友 近日貧道想去八卦大佛洞天遊歷闖蕩97F 02/16 15:57
BLUEPAPER: 不知道友是否有閒一同去尋求機緣?
smartony: 難怪社會賣子賣女去被幹的一堆,講的道貌岸然99F 02/16 16:01
seedhorse: 靠背我到底看了什麼100F 02/16 16:04
addyioox: 這個肯定年假有買鬼谷八荒101F 02/16 16:09
iloveannasui: 有笑有推!102F 02/16 16:10
tesslumin: 這到底是認真還是反串103F 02/16 16:12
joewang85: 笑死104F 02/16 16:15
s942816: 已通報105F 02/16 16:16
kyo51220: ……106F 02/16 16:17
pengcheng: 中國仙俠網遊?107F 02/16 16:18
etiennechiu: 這到底是不是反串,講得跟真的一樣XD108F 02/16 16:18
xva: 寫小說?什麼爛劇本109F 02/16 16:18
revorea: 幽默感死去110F 02/16 16:20
L1ON: ....111F 02/16 16:23
s4511981: 靠北,我整個笑出來。112F 02/16 16:24
jazztsai: 幾等可以轉生啊?113F 02/16 16:27
Matix1211: 笑死,原來莎莎也是修真的道友,她剛築基完才會排出身114F 02/16 16:30
Matix1211: 上的石頭
sheep0121: 這內文是要通報什麼?內文裡男子跟夫妻什麼都沒做啊116F 02/16 16:34
THDeer: 只有鬼谷八荒才有結晶117F 02/16 16:37
dl3rul075598: 我勸這位道友還是尋個門派加入吧,練氣散修不易啊118F 02/16 16:44
cruisertakao: 你們不要忘了一代一代一代大師 天油通宗師119F 02/16 16:44
priest66: ???????????????120F 02/16 17:02
BDUUU: 靠北我差點信了121F 02/16 17:05
ableader: 敢問道友何時結元嬰?122F 02/16 17:06
observer0406: 道友~是結單期,不是結晶期唷123F 02/16 17:13
Hiphop0827: 邪魔歪道124F 02/16 17:14
adam7749: 樓上,是結丹哦 不是結單125F 02/16 17:14
adam7749: 我還以為我走錯板了,笑死
philae1112: 三花聚頂、五氣朝元127F 02/16 17:18
penchiman: XDDD 好好笑128F 02/16 17:21
aimlikenoob: 別練了 快點發一篇期刊投稿,打臉西方物理大師拿諾129F 02/16 17:23
aimlikenoob: 貝爾獎躺著過日子,瞧那些唸書的天才多笨呢
Kelite: 是修真還是修幹要講清楚欸131F 02/16 17:26
ron08072002: 這篇真的是高手132F 02/16 17:30
hunter124785: 我都金丹大圓滿了,正打算突破,一起如何?133F 02/16 17:33
givemeakiss: 乾 太u質的文 不推不行134F 02/16 17:35
diiky: 哈哈……d卡來的喔135F 02/16 17:41
sunskist0831: 學會卍解了沒136F 02/16 17:42
acharles01: 安安你好公三小?137F 02/16 17:49
sai0613: 文筆真的不錯138F 02/16 17:50
wl02314128: 太u了吧139F 02/16 17:54
justempty: 我元嬰三階了,師弟一起加油吧!140F 02/16 17:54
js9150812: 這位道友可有多的築基丹 可否賣一顆給我141F 02/16 17:57
zi62007: 哪部142F 02/16 17:58
BBU2BBU2: 元嬰 結丹都是小說裡面編的,上網查就知道這都在講故事143F 02/16 18:07
BBU2BBU2: 。道家沒有這種東西
lovecihaaa: 我以為我走錯版145F 02/16 18:16
[圖]
there801021: 你的靈根很純哦147F 02/16 18:21
superprada: 結交道侶就是做愛嗎?148F 02/16 18:22
Gargila0135: 馬的,我到底看了什麼149F 02/16 18:24
ISNAKEI: 你的三階靈寵呢150F 02/16 18:30
yaipi: 到底是認真還反串?可惡看不出來151F 02/16 18:31
please17: 道友談吐間不怒自威、法隨言出,更為驚人汝法相竟是魔關152F 02/16 18:39
please17: 羽,果真高人
Rosso: 結果這篇回文比原po紅154F 02/16 18:43
toehold: 0.0155F 02/16 18:52
xzhi: ????156F 02/16 18:54
aa429: 想購買基礎藥石求突破境界157F 02/16 19:00
FLCH: 你在看小說你小心渡劫失敗,亂七八糟的心魔158F 02/16 19:05
rainbow7914: 靠 XD159F 02/16 19:11
as960625: 這批很純160F 02/16 19:11
onezero10: 有翻譯嗎  看不懂的話要先開什麼眼嗎161F 02/16 19:13
nalaculan: 敢問是哪門哪派的天驕?162F 02/16 19:19
chi10251984: 笑死~163F 02/16 19:19
kkkppp: 元嬰之下 皆是螻蟻164F 02/16 19:21
s595857: 幹這是三小165F 02/16 19:28
PhoenixLu: 這文筆 很明顯修真小說看了不少XDDD166F 02/16 19:31
wu0119: 你嗑了什麼?167F 02/16 19:31
wwwinnie: 笑die168F 02/16 19:35
lisachen0330: 原來是cfantasy版啊XD169F 02/16 19:35
exca: 我以為我點到玄幻版==170F 02/16 19:39
fragmentwing: 中國網小嗎171F 02/16 19:40
wawa459: 化神了沒~172F 02/16 19:41
tfvhj5681: 幹 以為我走錯版==173F 02/16 19:43
bsmile602: 敢問閣下空靈根174F 02/16 19:46
WhiteMouse: 笑死 中國小說 看太多嗎XDDD175F 02/16 19:51
shinrei: 我都飛升了你還在波廢文176F 02/16 19:53
fraser0136: 貴圈真亂177F 02/16 19:58
z3728: 道友 度劫了嗎178F 02/16 19:58
linkmusic: 唬爛= =179F 02/16 20:07
autokey: 這裡很多都已經化神修為了耶......180F 02/16 20:10
kprc: 在天上等你181F 02/16 20:12
alex85830: 請問練到真數千手了嗎182F 02/16 20:15
vs98and99: 你金丹有一品嗎? 沒一品渡劫渡不過183F 02/16 20:17
fj520: 有遇到谷阿莫的狗嗎184F 02/16 20:21
wj4123: 求認識XDDDD185F 02/16 20:25
kilhi: 渡劫沒186F 02/16 20:29
NaoGaTsu: 笑了187F 02/16 20:31
JingYun: 文筆不錯188F 02/16 20:41
MLXG0103: 借串問一下有沒有人遇到一個用藍銀草武魂的傢伙 在線等189F 02/16 20:41
cerenis: 我的一位道姑朋友。190F 02/16 20:45
xgodtw: 有笑有推191F 02/16 20:48
histing: 有病要就醫 不要再雙修了192F 02/16 20:48
cungcung15: 我懷疑你在唬爛可是我沒證據193F 02/16 20:49
yousong: 笑死差點以為小說版194F 02/16 20:56
y36987412: 看完沒有逆轉?!195F 02/16 20:57
gv390: 這部我知道,斗羅大陸196F 02/16 21:15
Juder: 幹XDDDD 修真聊天群wwwww197F 02/16 21:25
tanwenhau: 買帳號就好198F 02/16 21:31
hank11235813: 交換夫妻? 多p?199F 02/16 21:38
bill8345: 誰有拍賣會的邀請函200F 02/16 21:39
sses40713: 吃藥201F 02/16 21:40
tom0927: 祝大大九龍紋202F 02/16 21:41
abibas5566: 有興趣,可否惠賜築基丹幾粒 他日有成必定相報203F 02/16 21:44
latine0404: U質文204F 02/16 21:50
littlekang1: 神串留名!205F 02/16 21:52
HHH555JJJ: 蛤?206F 02/16 21:54
vegetablesss: 不知道在講什麼的一篇文207F 02/16 21:54
doublemouse: 三月才改版啦,卡住的再等等208F 02/16 22:02
fatbean: 三小XD 這要轉tiger blue吧209F 02/16 22:04
hunterbear: 剛進入金丹期而已 求帶領210F 02/16 22:05
kight91062: XDDD 等你出書啦211F 02/16 22:07
Metro321: 請問有修真道侶交友軟體嗎?哈哈212F 02/16 22:07
lily08320: 很有道理213F 02/16 22:13
bearkitten: 練功練到精神異常都是真的214F 02/16 22:15
tlu3: 修真元嬰才開始,金丹以下皆是螻蟻215F 02/16 22:24
tomhlover: 靠北 西斯版膩XD216F 02/16 22:28
ymx3xc: 公三     痾 算惹 好像還蠻有趣的217F 02/16 22:29
Royalwarrior: 我不練修真,專注解開基因鎖,目前4階上。218F 02/16 22:32
EQUP: 還以為走錯板了 道友此舉不妥 吾輩共識應是不可將修道界的存219F 02/16 22:38
EQUP: 在暴露在普通人面前
RachelMcAdam: 這我知道,金輪法王的龍象般若功亂練一通也卡在9層221F 02/16 22:38
sibin: 超U222F 02/16 22:42
xp84720: 笑死223F 02/16 22:53
tweence: XD224F 02/16 22:57
mzxcvbn: 我朋友修到爆衣的境界 給你參考225F 02/16 23:04
F12NLargo: 內行人XD226F 02/16 23:25
shirin04:   頭好痛227F 02/16 23:28
BenShiuan: 請左轉 CFantasy 板……228F 02/16 23:35
hank9201: 道友年輕有為 金丹已成 可否交流切磋229F 02/16 23:43
mark0204:230F 02/16 23:48
y120196276: 看到結晶期就知道是鬼谷八荒了231F 02/16 23:58
Cube054: 害我認真看完232F 02/16 23:58
awheaton311: 要小心一個很霸道的李姓道友233F 02/16 23:59
tony011: 雙修、雙修、雙修...234F 02/17 00:01
GGdong: 工三小啦235F 02/17 00:08
peggy60624: 好難的文言文236F 02/17 00:11
bmwx6: 現在首儲不是直接升元嬰嗎?你那是哪個派的這麼難練?237F 02/17 00:11
hsiantinc: 笑死238F 02/17 00:16
BisouBisou: 一本正經說幹話XDDDDDDDDDDDDDDDD239F 02/17 00:17
LiamTiger: 哪部240F 02/17 00:19
PttCraft: 數十年前就仙姿超凡,結果女友搞不定? #1Pj-FAtM241F 02/17 00:21
PttCraft: 頭上修得很綠嗎?
[求助] 女友讓其他男生載回家 我是不是綠了? - 看板 Boy-Girl - 批踢踢實業坊
[圖]
[圖]
[圖]

背景資料: 1.跨縣市 機車車程一小時 2.交往7年 3.女友不住公司附近 但有公車 約20分鐘車程 4.女友不會騎車也不會開車
kmt487487: 沒九龍紋你還是投胎再來過吧243F 02/17 00:31
NingK: 樓上,九龍紋可以自己畫244F 02/17 00:39
NingK: 我的是白前輩幫我畫的
tracyo: 情谷底246F 02/17 00:41
im2a27: 笑死 鬼谷八荒還是太吾繪卷玩太多247F 02/17 00:47
kimbosu: 什麼啦248F 02/17 01:03
ponwha22: ???249F 02/17 01:03
s37166117: 貧道自嘆不如 羨慕道友有雙修機會250F 02/17 01:15
s37166117: 我左手昊天錘右手藍銀草
ddv8uc: 道友是嗑藥派的吧252F 02/17 01:52
ATND: 果然有前途253F 02/17 01:58
s21995303: 講人話254F 02/17 02:03
godzillagrrr: 休幹255F 02/17 02:11
shampoopoo: 這篇好看耶XD256F 02/17 02:15
Freeven: 閣下已經到了元嬰期了嗎?257F 02/17 02:36
lingz1024: 有魂環了沒啦258F 02/17 02:49
pirrysal: 以為自己在cfantasy小說版259F 02/17 02:58
zoo868e: 魂環…那也算修仙?260F 02/17 02:59
ZW0523: 所以是一本正經的借用遊戲資料講幹話嘛261F 02/17 05:09
kelvin1105: 打炮就打炮 何必用其他詞彙遮掩262F 02/17 05:15

--
※ 看板: Boy-Girl 文章推薦值: 0 目前人氣: 0 累積人氣: 456 
分享網址:
r)回覆 e)編輯 d)刪除 M)不收藏 ^x)轉錄 同主題: =)首篇 [)上篇 ])下篇